Regional Weather Roundup
Issued by NWS Wakefield, VA

Home | Current Version | Previous Version | Text Only | Print | Product List | Glossary Off
Versions: 1 2 3 4 5 6 7 8 9 10 11 12 13 14 15 16 17 18 19 20 21 22 23 24 25 26 27 28 29 30 31 32 33 34 35 36 37 38 39 40 41 42 43 44 45 46 47 48 49 50

000
ASUS41 KAKQ 011410
RWRAKQ

REGIONAL WEATHER ROUNDUP
NATIONAL WEATHER SERVICE WAKEFIELD VA
1000 AM EDT FRI AUG 01 2014

Note: "fair" indicates few or no clouds below 12,000 feet with no
significant weather and/or obstructions to visibility. * = Denotes
station may not report precipitation (e.g., rain,snow,etc.),
thunder or fog.

VAZ042-051-052>054-056-011500-
NORTHERN VIRGINIA

CITY           SKY/WX    TMP DP  RH WIND       PRES   REMARKS
WASH NATIONAL  CLOUDY    77  67  71 S8        30.18S
DULLES         CLOUDY    73  66  78 SW8       30.18R
FORT BELVOIR   CLOUDY    74  69  82 S3        30.18S
QUANTICO       LGT RAIN  74  68  81 SW3       30.19S
FREDERICKSBRG* LGT RAIN  73  71  94 W3        30.18S
STAFFORD*      DRIZZLE   72  72 100 CALM      30.23R
WARRENTON      DRIZZLE   73  72  95 SW6       30.19R
CULPEPER*      DRIZZLE  N/A N/A N/A S6        30.20R
MANASSAS*      MOSUNNY   73  70  88 S7        30.19R
LEESBURG*      CLOUDY    73  70  88 S3        30.19S
WINCHESTER     CLOUDY    70  64  83 SW3       30.19R
$$

VAZ048-049-060>072-079>083-011500-
CENTRAL AND SOUTH CENTRAL VIRGINIA...AND NORTH CENTRAL NORTH CAROLINA

CITY           SKY/WX    TMP DP  RH WIND       PRES   REMARKS
RICHMOND       LGT RAIN  74  66  76 W5        30.19R
CHESTERFIELD*  CLOUDY   N/A N/A N/A N3        30.20R
HANOVER        LGT RAIN  71  69  93 CALM      30.21R FOG
TAPPAHANNOCK*  LGT RAIN  73  66  80 SW3       30.20S
CHARLOTTSVILLE LGT RAIN  69  66  90 CALM      30.20R
ORANGE*        LGT RAIN  70  66  88 CALM      30.22R
LOUISA*        LGT RAIN  70  66  88 CALM      30.20S
FARMVILLE*     LGT RAIN  68  66  94 CALM      30.19R
SOUTH HILL*    LGT RAIN  72  72 100 N6        30.20F
ROANOKE RAPIDS CLOUDY    70  68  94 NE5       30.14F
RALEIGH        CLOUDY    74  68  81 NE8       30.12S
$$

VAZ088>098-011500-
SOUTHEAST VIRGINIA

CITY           SKY/WX    TMP DP  RH WIND       PRES   REMARKS
NORFOLK        CLOUDY    77  68  73 E7        30.17R
VIRGINIA BEACH CLOUDY    77  69  76 E7        30.16R
NORFOLK NAVAL  CLOUDY    78  69  73 NE8       30.18R
WEST POINT*    CLOUDY    74  70  87 CALM      30.21R
NEWPORT NEWS   CLOUDY    78  71  79 N5        30.17S
LANGLEY AFB    PTSUNNY   76  74  93 NE3       30.17R
FORT EUSTIS    CLOUDY    75  75 100 N2        30.16R
WILLIAMSBURG*  CLOUDY    77  73  88 CALM      30.19R
FRANKLIN*      CLOUDY    72  72 100 NE3       30.16S
WAKEFIELD      LGT RAIN  73  68  84 CALM      30.18R
$$

VAZ020-022-025-037-045-011500-
WESTERN AND SOUTHWEST VIRGINIA

CITY           SKY/WX    TMP DP  RH WIND       PRES   REMARKS
STAUNTON*      DRIZZLE   67  64  89 CALM      30.24R
HOT SPRINGS VA FOG       56  55  95 S8G16     30.30S VSB<1/4
LYNCHBURG      RAIN      66  65  96 CALM      30.22S FOG
DANVILLE       CLOUDY    69  64  84 NE9       30.17S
MARTINSVILLE   LGT RAIN  66  65  97 N5        30.21S
ROANOKE        LGT RAIN  65  64  97 CALM      30.23S FOG
BLACKSBURG     RAIN      63  63 100 E5        30.24
DUBLIN*        LGT RAIN  62  62 100 CALM      30.24S
MARION*        LGT RAIN  64  60  87 NE6       30.25S
HILLSVILLE*    LGT RAIN  59  58  98 CALM      30.23S
RICHLANDS*     CLOUDY    68  59  74 SE7       30.20S
WISE*          PTSUNNY   70  57  64 S6        30.21S
ABINGDON*      CLOUDY    68  60  75 E10       30.19S
$$

MDZ021>025-VAZ099-100-011500-
SOUTHERN MARYLAND AND THE DELMARVA PENINSULA

CITY           SKY/WX    TMP DP  RH WIND       PRES   REMARKS
PATUXENT RIVER LGT RAIN  75  65  70 SW5       30.18R
BAY BRIDGE APT   N/A     77  64  65 SW5       30.18R
LEONARDTOWN    CLOUDY    73  64  73 W3        30.20R
DOVER          CLOUDY    79  71  76 SW6       30.16S
GEORGETOWN     PTSUNNY   78  68  71 S10       30.19S
EASTON         CLOUDY    79  68  69 W6        30.21S
CAMBRIDGE      CLOUDY    79  64  61 S3        30.18R
SALISBURY      CLOUDY    80  66  62 N3        30.18S
OCEAN CITY     CLOUDY    76  67  73 CALM      30.19S
WALLOPS ISLAND CLOUDY    77  68  73 SE5       30.19R
ACCOMACK*        N/A     73  70  88 E3        30.17S
$$

NCZ012>017-030>032-011500-
EASTERN NORTH CAROLINA

CITY           SKY/WX    TMP DP  RH WIND       PRES   REMARKS
ELIZABETH CITY CLOUDY    76  70  82 E7        30.15S
AHOSKIE*       CLOUDY    72  68  87 CALM      30.15S
EDENTON*       LGT RAIN  74  71  92 NE3       30.14S
CURRITUCK*     CLOUDY    78  67  68 E5        30.17R
KILL DEVIL HLS CLOUDY    76  69  79 E7        30.14S
MANTEO         NOT AVBL
CAPE HATTERAS  CLOUDY    80  76  87 E10       30.11S
GOLDSBORO      LGT RAIN  71  70  98 NE9       30.09S
WASHINGTON     CLOUDY    71  69  94 NE7       30.12S
GREENVILLE     RAIN      72  70  94 NE8       30.13F
NEW BERN       LGT RAIN  75  72  88 E5        30.11S
WILMINGTON     HVY RAIN  75  73  93 NE6       30.06R FOG
$$

VAZ048-011500-
ELSEWHERE

CITY           SKY/WX    TMP DP  RH WIND       PRES   REMARKS
HARRISBURG PA  PTSUNNY   76  67  73 CALM      30.17S
BALTIMORE      CLOUDY    75  67  76 SW6       30.17S
ANNAPOLIS      CLOUDY    77  66  68 W7        30.17S
ANDREWS AFB    CLOUDY    75  68  79 SW7       30.18S
WILMINGTON DE  PTSUNNY   78  70  76 S6        30.18F
PHILADELPHIA   PTSUNNY   78  68  71 SW7       30.18S
WILDWOOD NJ*   CLOUDY    77  64  65 W5        30.21R
ATLANTIC CITY  CLOUDY    78  67  68 SW6       30.19S
HENDERSON NC   CLOUDY    70  67  92 NE7       30.15F FOG
GREENSBORO     RAIN      65  64  97 N6        30.16R FOG
ROCKY MOUNT    CLOUDY    73  68  84 NE9       30.12F
FAYETTEVILLE   CLOUDY    76  70  82 E16       30.07S
CHARLOTTE      LGT RAIN  66  63  90 NE12      30.10R
$$

VAZ100-011500-
MARINE

STATION/POSITION TIME  TEMP    WIND        PRES    WAVE   SWELL
                       AIR SEA DIR/SP/G            HT/PER HT/PER
                 (UTC) (F)     (DEG/KT/KT) (MB)    (FT/S) (FT/S)
44066 TX TWR #4  1400   74 74  140/  6/  6 1022.9S   3/ 7   3/ 7
CAPE MAY NJ      1400   75 76  250/  3/  3 1021.9R
LEWES DE         1400   77 70  290/  3/  5 1021.8F
15NM E FENWICK I 1400   75 72              1022.5S   2/ 7
OCEAN-CITY-INLET 1400   75 75  160/  2/  3 1021.8S
WACHAPREAGUE VA  1400   76 78   50/  5/  6 1021.6R
THOMAS POINT MD  1400   75 78  230/  7/  8 1022.3R
GOOSES REEF MD   1400   75     260/  6/  8 1022.3R
COVE POINT MD    1400   74     200/  5/  6 1021.9R
SOLOMONS ISLAND  1400      79                N/A
BISHOPS HEAD MD  1400   77 77  210/  3/  5 1021.6R
PINEY POINT MD   1400          270/  3/  3   N/A
POTOMAC MD       1400   75     290/  4/  6 1021.3R
CAMBRIDGE MD     1400   77 78  220/  4/  6 1021.7R
LEWISETTA VA     1400   74 78  310/  3/  4 1021.8R
RAPPAHANNOCK LGT 1400           60/  2/  2 1022.6R
STINGRAY PT      1400   77     110/  2/  4 1022.4R
YORK RVR RNG VA  1400   77     100/  2/  3 1021.3R
YORKTOWN VA      1400   75 79  350/  4/  5 1021.4F
JAMESTOWN VA     1400   73     350/  2/  2   N/A
DOMINION TERM VA 1400   77      30/  3/  5 1021.5F
KIPTOPEKE VA     1400      80   90/  4/  5   N/A
CHES BAY BRIDGE  1400   76 77   40/  8/  9 1021.0R
CAPE HENRY VA    1400   76      50/  7/  7 1020.3R
WILLOUBY STN VA  1400           80/  6/  7 1020.9R
S CRANEY ISL VA  1400           30/  5/  6 1021.5R
CAPE HENRY BUOY  1400      76                N/A     3/ 7
1ST LANDING BUOY 1400   76      70/  8/  8 1021.2R
CAPE CHARLES BUO 1400      74                N/A     2/ 8
OFFSHORE WE BUOY 1400      77                N/A     3/ 7
64NM E OF VA BCH 1400   77 78   70/ 12/ 14 1021.2R   2/ 7   2/ 7
DUCK PIER NC     1400   77 76   80/ 12/ 14 1020.5R
44056 DUCK FRF   1400                        N/A     3/ 6
OREGON INLET NC  1400   77 78   50/ 12/ 17 1020.4S
HATTERAS NC      1400   80 79   80/  6/ 10 1019.6F
DIAMOND SHLS NC  1400          VRB 14/ 16  1019.1R   4/ 5   2/ 7
CAPE LOOKOUT NC  1300   80     110/ 12/ 12 1018.3R
$$



USA.gov is the U.S. government's official web portal to all federal, state and local government web resources and services.